Time,TemperatureF,DewpointF,PressureIn,WindDirection,WindDirectionDegrees,WindSpeedMPH,WindSpeedGustMPH,Humidity,HourlyPrecipIn,Conditions,Clouds,dailyrainin,SolarRadiationWatts/m^2,SoftwareType,DateUTC
2013-05-27 00:02:00,66.0,56.0,-100.00,SE,127,0.0,8.0,69,0.00,,,-99.99,0.000000,,2013-05-27 10:02:00,
2013-05-27 00:11:00,66.0,61.0,-100.00,SSE,160,0.0,3.0,84,0.00,,,0.00,0.000000,,2013-05-27 10:11:00,
2013-05-27 00:32:00,66.0,61.0,-100.00,SSE,160,0.0,3.0,84,0.00,,,0.00,0.000000,,2013-05-27 10:32:00,
2013-05-27 00:42:00,66.0,61.0,-100.00,SSE,160,0.0,3.0,84,0.00,,,0.00,0.000000,,2013-05-27 10:42:00,
2013-05-27 00:52:00,66.0,61.0,-100.00,SSE,160,0.0,3.0,84,0.00,,,0.00,0.000000,,2013-05-27 10:52:00,
2013-05-27 01:02:00,66.0,61.0,-100.00,SSE,160,0.0,3.0,84,0.00,,,0.00,0.000000,,2013-05-27 11:02:00,
2013-05-27 01:11:00,64.0,59.0,-100.00,SW,228,0.0,0.0,85,0.00,,,0.00,0.000000,,2013-05-27 11:11:00,
2013-05-27 01:32:00,64.0,59.0,-100.00,SW,228,0.0,0.0,85,0.00,,,0.00,0.000000,,2013-05-27 11:32:00,
2013-05-27 01:42:00,64.0,59.0,-100.00,SW,228,0.0,0.0,85,0.00,,,0.00,0.000000,,2013-05-27 11:42:00,
2013-05-27 01:52:00,64.0,59.0,-100.00,SW,228,0.0,0.0,85,0.00,,,0.00,0.000000,,2013-05-27 11:52:00,
2013-05-27 02:01:00,64.0,59.0,-100.00,SW,228,0.0,0.0,85,0.00,,,0.00,0.000000,,2013-05-27 12:01:00,
2013-05-27 02:11:00,66.0,58.0,-100.00,South,182,0.0,4.0,76,0.00,,,0.00,0.000000,,2013-05-27 12:11:00,
2013-05-27 02:32:00,66.0,58.0,-100.00,South,182,0.0,4.0,76,0.00,,,0.00,0.000000,,2013-05-27 12:32:00,
2013-05-27 02:42:00,66.0,58.0,-100.00,South,182,0.0,4.0,76,0.00,,,0.00,0.000000,,2013-05-27 12:42:00,
2013-05-27 02:52:00,66.0,58.0,-100.00,South,182,0.0,4.0,76,0.00,,,0.00,0.000000,,2013-05-27 12:52:00,
2013-05-27 03:01:00,66.0,58.0,-100.00,South,182,0.0,4.0,76,0.00,,,0.00,0.000000,,2013-05-27 13:01:00,
2013-05-27 03:11:00,66.0,58.0,-100.00,South,182,1.0,4.0,76,0.00,,,0.00,0.000000,,2013-05-27 13:11:00,
2013-05-27 03:32:00,66.0,58.0,-100.00,South,182,1.0,4.0,76,0.00,,,0.00,0.000000,,2013-05-27 13:32:00,
2013-05-27 03:42:00,66.0,58.0,-100.00,South,182,1.0,4.0,76,0.00,,,0.00,0.000000,,2013-05-27 13:42:00,
2013-05-27 03:52:00,66.0,58.0,-100.00,South,182,1.0,4.0,76,0.00,,,0.00,0.000000,,2013-05-27 13:52:00,
2013-05-27 04:01:00,66.0,58.0,-100.00,South,182,1.0,4.0,76,0.00,,,0.00,0.000000,,2013-05-27 14:01:00,
2013-05-27 04:11:00,64.0,60.0,-100.00,East,96,0.0,4.0,87,0.00,,,0.00,0.000000,,2013-05-27 14:11:00,
2013-05-27 04:32:00,64.0,60.0,-100.00,East,96,0.0,4.0,87,0.00,,,0.00,0.000000,,2013-05-27 14:32:00,
2013-05-27 04:42:00,64.0,60.0,-100.00,East,96,0.0,4.0,87,0.00,,,0.00,0.000000,,2013-05-27 14:42:00,
2013-05-27 04:52:00,64.0,60.0,-100.00,East,96,0.0,4.0,87,0.00,,,0.00,0.000000,,2013-05-27 14:52:00,
2013-05-27 05:01:00,64.0,60.0,-100.00,East,96,0.0,4.0,87,0.00,,,0.00,0.000000,,2013-05-27 15:01:00,
2013-05-27 05:11:00,66.0,64.0,-100.00,South,169,0.0,0.0,92,0.00,,,0.00,0.000000,,2013-05-27 15:11:00,
2013-05-27 05:33:00,66.0,64.0,-100.00,South,169,0.0,0.0,92,0.00,,,0.00,0.000000,,2013-05-27 15:33:00,
2013-05-27 05:43:00,66.0,64.0,-100.00,South,169,0.0,0.0,92,0.00,,,0.00,0.000000,,2013-05-27 15:43:00,
2013-05-27 05:53:00,66.0,64.0,-100.00,South,169,0.0,0.0,92,0.00,,,0.00,0.000000,,2013-05-27 15:53:00,
2013-05-27 06:02:00,66.0,64.0,-100.00,South,169,0.0,0.0,92,0.00,,,0.00,0.000000,,2013-05-27 16:02:00,
2013-05-27 06:11:00,65.0,64.0,-100.00,SSE,156,0.0,3.0,96,0.00,,,-99.99,1.000000,,2013-05-27 16:11:00,
2013-05-27 06:33:00,65.0,64.0,-100.00,SSE,156,0.0,3.0,96,0.00,,,-99.99,1.000000,,2013-05-27 16:33:00,
2013-05-27 06:42:00,65.0,64.0,-100.00,SSE,156,0.0,3.0,96,0.00,,,-99.99,1.000000,,2013-05-27 16:42:00,
2013-05-27 06:52:00,65.0,64.0,-100.00,SSE,156,0.0,3.0,96,0.00,,,-99.99,1.000000,,2013-05-27 16:52:00,
2013-05-27 07:02:00,65.0,64.0,-100.00,SSE,156,0.0,3.0,96,0.00,,,-99.99,1.000000,,2013-05-27 17:02:00,
2013-05-27 07:11:00,67.0,61.0,-100.00,South,180,0.0,2.0,81,0.00,,,0.00,30.000000,,2013-05-27 17:11:00,
2013-05-27 07:32:00,67.0,61.0,-100.00,South,180,0.0,2.0,81,0.00,,,0.00,30.000000,,2013-05-27 17:32:00,
2013-05-27 07:43:00,67.0,61.0,-100.00,South,180,0.0,2.0,81,0.00,,,0.00,30.000000,,2013-05-27 17:43:00,
2013-05-27 07:52:00,67.0,61.0,-100.00,South,180,0.0,2.0,81,0.00,,,0.00,30.000000,,2013-05-27 17:52:00,
2013-05-27 08:02:00,67.0,61.0,-100.00,South,180,0.0,2.0,81,0.00,,,0.00,30.000000,,2013-05-27 18:02:00,
2013-05-27 08:11:00,75.0,65.0,-100.00,WNW,298,0.0,0.0,72,0.00,,,0.00,105.000000,,2013-05-27 18:11:00,
2013-05-27 08:32:00,75.0,65.0,-100.00,WNW,298,0.0,0.0,72,0.00,,,0.00,105.000000,,2013-05-27 18:32:00,
2013-05-27 08:42:00,75.0,65.0,-100.00,WNW,298,0.0,0.0,72,0.00,,,0.00,105.000000,,2013-05-27 18:42:00,
2013-05-27 08:52:00,75.0,65.0,-100.00,WNW,298,0.0,0.0,72,0.00,,,0.00,105.000000,,2013-05-27 18:52:00,
2013-05-27 09:01:00,75.0,65.0,-100.00,WNW,298,0.0,0.0,72,0.00,,,0.00,105.000000,,2013-05-27 19:01:00,
2013-05-27 09:11:00,78.0,64.0,-100.00,NW,313,1.0,6.0,63,0.00,,,0.00,642.000000,,2013-05-27 19:11:00,
2013-05-27 09:32:00,78.0,64.0,-100.00,NW,313,1.0,6.0,63,0.00,,,0.00,642.000000,,2013-05-27 19:32:00,
2013-05-27 09:42:00,78.0,64.0,-100.00,NW,313,1.0,6.0,63,0.00,,,0.00,642.000000,,2013-05-27 19:42:00,
2013-05-27 09:52:00,78.0,64.0,-100.00,NW,313,1.0,6.0,63,0.00,,,0.00,642.000000,,2013-05-27 19:52:00,
2013-05-27 10:01:00,78.0,64.0,-100.00,NW,313,1.0,6.0,63,0.00,,,0.00,642.000000,,2013-05-27 20:01:00,
2013-05-27 10:11:00,77.0,61.0,-100.00,WSW,247,0.0,5.0,58,0.00,,,0.00,693.000000,,2013-05-27 20:11:00,
2013-05-27 10:32:00,77.0,61.0,-100.00,WSW,247,0.0,5.0,58,0.00,,,0.00,693.000000,,2013-05-27 20:32:00,
2013-05-27 10:42:00,77.0,61.0,-100.00,WSW,247,0.0,5.0,58,0.00,,,0.00,693.000000,,2013-05-27 20:42:00,
2013-05-27 10:52:00,77.0,61.0,-100.00,WSW,247,0.0,5.0,58,0.00,,,0.00,693.000000,,2013-05-27 20:52:00,
2013-05-27 11:01:00,77.0,61.0,-100.00,WSW,247,0.0,5.0,58,0.00,,,0.00,693.000000,,2013-05-27 21:01:00,
2013-05-27 11:11:00,79.0,62.0,-100.00,SW,219,1.0,8.0,56,0.00,,,0.00,923.000000,,2013-05-27 21:11:00,
2013-05-27 11:33:00,79.0,62.0,-100.00,SW,219,1.0,8.0,56,0.00,,,0.00,923.000000,,2013-05-27 21:33:00,
2013-05-27 11:43:00,79.0,62.0,-100.00,SW,219,1.0,8.0,56,0.00,,,0.00,923.000000,,2013-05-27 21:43:00,
2013-05-27 11:53:00,79.0,62.0,-100.00,SW,219,1.0,8.0,56,0.00,,,0.00,923.000000,,2013-05-27 21:53:00,
2013-05-27 12:02:00,79.0,62.0,-100.00,SW,219,1.0,8.0,56,0.00,,,0.00,923.000000,,2013-05-27 22:02:00,
2013-05-27 12:11:00,81.0,63.0,-100.00,SW,214,3.0,7.0,54,0.00,,,0.00,1110.000000,,2013-05-27 22:11:00,
2013-05-27 12:33:00,81.0,63.0,-100.00,SW,214,3.0,7.0,54,0.00,,,0.00,1110.000000,,2013-05-27 22:33:00,
2013-05-27 12:42:00,81.0,63.0,-100.00,SW,214,3.0,7.0,54,0.00,,,0.00,1110.000000,,2013-05-27 22:42:00,
2013-05-27 12:53:00,81.0,63.0,-100.00,SW,214,3.0,7.0,54,0.00,,,0.00,1110.000000,,2013-05-27 22:53:00,
2013-05-27 13:02:00,81.0,63.0,-100.00,SW,214,3.0,7.0,54,0.00,,,0.00,1110.000000,,2013-05-27 23:02:00,
2013-05-27 13:11:00,80.0,63.0,-100.00,WSW,250,0.0,7.0,56,0.00,,,0.00,897.000000,,2013-05-27 23:11:00,
2013-05-27 13:32:00,80.0,63.0,-100.00,WSW,250,0.0,7.0,56,0.00,,,0.00,897.000000,,2013-05-27 23:32:00,
2013-05-27 13:42:00,80.0,63.0,-100.00,WSW,250,0.0,7.0,56,0.00,,,0.00,897.000000,,2013-05-27 23:42:00,
2013-05-27 13:52:00,80.0,63.0,-100.00,WSW,250,0.0,7.0,56,0.00,,,0.00,897.000000,,2013-05-27 23:52:00,
2013-05-27 14:01:00,80.0,63.0,-100.00,WSW,250,0.0,7.0,56,0.00,,,0.00,897.000000,,2013-05-28 00:01:00,
2013-05-27 15:11:00,81.0,63.0,-100.00,WSW,244,2.0,8.0,54,-99.99,,,0.00,852.000000,,2013-05-28 01:11:00,
2013-05-27 15:32:00,81.0,63.0,-100.00,WSW,244,2.0,8.0,54,-99.99,,,0.00,852.000000,,2013-05-28 01:32:00,
2013-05-27 15:42:00,81.0,63.0,-100.00,WSW,244,2.0,8.0,54,-99.99,,,0.00,852.000000,,2013-05-28 01:42:00,
2013-05-27 15:52:00,81.0,63.0,-100.00,WSW,244,2.0,8.0,54,-99.99,,,0.00,852.000000,,2013-05-28 01:52:00,
2013-05-27 16:02:00,81.0,63.0,-100.00,WSW,244,2.0,8.0,54,-99.99,,,0.00,852.000000,,2013-05-28 02:02:00,
2013-05-27 16:11:00,79.0,64.0,-100.00,SSW,198,4.0,10.0,60,0.00,,,0.00,450.000000,,2013-05-28 02:11:00,
2013-05-27 16:32:00,79.0,64.0,-100.00,SSW,198,4.0,10.0,60,0.00,,,0.00,450.000000,,2013-05-28 02:32:00,
2013-05-27 16:42:00,79.0,64.0,-100.00,SSW,198,4.0,10.0,60,0.00,,,0.00,450.000000,,2013-05-28 02:42:00,
2013-05-27 16:52:00,79.0,64.0,-100.00,SSW,198,4.0,10.0,60,0.00,,,0.00,450.000000,,2013-05-28 02:52:00,
2013-05-27 17:01:00,79.0,64.0,-100.00,SSW,198,4.0,10.0,60,0.00,,,0.00,450.000000,,2013-05-28 03:01:00,
2013-05-27 17:11:00,74.0,62.0,-100.00,WSW,249,1.0,7.0,66,0.00,,,0.00,269.000000,,2013-05-28 03:11:00,
2013-05-27 17:33:00,74.0,62.0,-100.00,WSW,249,1.0,7.0,66,0.00,,,0.00,269.000000,,2013-05-28 03:33:00,
2013-05-27 17:43:00,74.0,62.0,-100.00,WSW,249,1.0,7.0,66,0.00,,,0.00,269.000000,,2013-05-28 03:43:00,
2013-05-27 17:53:00,74.0,62.0,-100.00,WSW,249,1.0,7.0,66,0.00,,,0.00,269.000000,,2013-05-28 03:53:00,
2013-05-27 18:02:00,74.0,62.0,-100.00,WSW,249,1.0,7.0,66,0.00,,,0.00,269.000000,,2013-05-28 04:02:00,
2013-05-27 18:11:00,80.0,65.0,-100.00,South,187,0.0,7.0,61,0.00,,,0.00,218.000000,,2013-05-28 04:11:00,
2013-05-27 18:33:00,80.0,65.0,-100.00,South,187,0.0,7.0,61,0.00,,,0.00,218.000000,,2013-05-28 04:33:00,
2013-05-27 18:43:00,80.0,65.0,-100.00,South,187,0.0,7.0,61,0.00,,,0.00,218.000000,,2013-05-28 04:43:00,
2013-05-27 18:52:00,80.0,65.0,-100.00,South,187,0.0,7.0,61,0.00,,,0.00,218.000000,,2013-05-28 04:52:00,
2013-05-27 19:02:00,80.0,65.0,-100.00,South,187,0.0,7.0,61,0.00,,,0.00,218.000000,,2013-05-28 05:02:00,
2013-05-27 19:11:00,74.0,64.0,-100.00,NW,322,0.0,6.0,70,0.00,,,0.00,59.000000,,2013-05-28 05:11:00,
2013-05-27 19:33:00,74.0,64.0,-100.00,NW,322,0.0,6.0,70,0.00,,,0.00,59.000000,,2013-05-28 05:33:00,
2013-05-27 19:42:00,74.0,64.0,-100.00,NW,322,0.0,6.0,70,0.00,,,0.00,59.000000,,2013-05-28 05:42:00,
2013-05-27 19:52:00,74.0,64.0,-100.00,NW,322,0.0,6.0,70,0.00,,,0.00,59.000000,,2013-05-28 05:52:00,
2013-05-27 20:02:00,74.0,64.0,-100.00,NW,322,0.0,6.0,70,0.00,,,0.00,59.000000,,2013-05-28 06:02:00,
2013-05-27 20:11:00,69.0,58.0,-100.00,East,95,0.0,4.0,68,0.00,,,0.00,2.000000,,2013-05-28 06:11:00,
2013-05-27 20:32:00,69.0,58.0,-100.00,East,95,0.0,4.0,68,0.00,,,0.00,2.000000,,2013-05-28 06:32:00,
2013-05-27 20:42:00,69.0,58.0,-100.00,East,95,0.0,4.0,68,0.00,,,0.00,2.000000,,2013-05-28 06:42:00,
2013-05-27 20:52:00,69.0,58.0,-100.00,East,95,0.0,4.0,68,0.00,,,0.00,2.000000,,2013-05-28 06:52:00,
2013-05-27 21:01:00,69.0,58.0,-100.00,East,95,0.0,4.0,68,0.00,,,0.00,2.000000,,2013-05-28 07:01:00,
2013-05-27 21:11:00,69.0,57.0,-100.00,East,100,2.0,9.0,66,0.00,,,0.00,0.000000,,2013-05-28 07:11:00,
2013-05-27 21:32:00,69.0,57.0,-100.00,East,100,2.0,9.0,66,0.00,,,0.00,0.000000,,2013-05-28 07:32:00,
2013-05-27 21:42:00,69.0,57.0,-100.00,East,100,2.0,9.0,66,0.00,,,0.00,0.000000,,2013-05-28 07:42:00,
2013-05-27 21:52:00,69.0,57.0,-100.00,East,100,2.0,9.0,66,0.00,,,0.00,0.000000,,2013-05-28 07:52:00,
2013-05-27 22:02:00,69.0,57.0,-100.00,East,100,2.0,9.0,66,0.00,,,0.00,0.000000,,2013-05-28 08:02:00,
2013-05-27 22:11:00,67.0,55.0,-100.00,SE,133,0.0,9.0,66,0.00,,,0.00,0.000000,,2013-05-28 08:11:00,
2013-05-27 22:32:00,67.0,55.0,-100.00,SE,133,0.0,9.0,66,0.00,,,0.00,0.000000,,2013-05-28 08:32:00,
2013-05-27 22:42:00,67.0,55.0,-100.00,SE,133,0.0,9.0,66,0.00,,,0.00,0.000000,,2013-05-28 08:42:00,
2013-05-27 22:52:00,67.0,55.0,-100.00,SE,133,0.0,9.0,66,0.00,,,0.00,0.000000,,2013-05-28 08:52:00,
2013-05-27 23:01:00,67.0,55.0,-100.00,SE,133,0.0,9.0,66,0.00,,,0.00,0.000000,,2013-05-28 09:01:00,
2013-05-27 23:11:00,67.0,55.0,-100.00,East,95,3.0,10.0,66,0.00,,,0.00,0.000000,,2013-05-28 09:11:00,
2013-05-27 23:33:00,67.0,55.0,-100.00,East,95,3.0,10.0,66,0.00,,,0.00,0.000000,,2013-05-28 09:33:00,
2013-05-27 23:43:00,67.0,55.0,-100.00,East,95,3.0,10.0,66,0.00,,,0.00,0.000000,,2013-05-28 09:43:00,
2013-05-27 23:53:00,67.0,55.0,-100.00,East,95,3.0,10.0,66,0.00,,,0.00,0.000000,,2013-05-28 09:53:00,